Newport, VT

5:17 PM EDT on June 27, 2017 (GMT -0400)
Newport State

Weather History for KEFK - February, 2014

Change the Weather History Date:

Wednesday, February 5, 2014

  Actual Average Record
Temperature  
Mean Temperature 16 °F -  
Max Temperature 21 °F 22 °F 57 °F (1991)
Min Temperature 10 °F 2 °F -29 °F (1934)
Degree Days  
Heating Degree Days 49    
Moisture  
Dew Point 12 °F    
Average Humidity 81    
Maximum Humidity 83    
Minimum Humidity 75    
Precipitation  
Precipitation 0.00 in - - ()
Sea Level Pressure  
Sea Level Pressure 30.00 in    
Wind  
Wind Speed 3 mph (NNW)    
Max Wind Speed 14 mph    
Max Gust Speed -    
Visibility 3 miles    
Events Snow    
Averages and records for this station are not official NWS values.
T = Trace of Precipitation, MM = Missing Value Source: NWS Daily Summary

Daily Weather History Graph

Daily Weather History Graph

Search for Another Location

Airport or City:

Trip Planner

Search our weather history database for the weather conditions in past years. The results will help you decide how hot, cold, wet, or windy it might be!

Date:

Astronomy

Feb. 05, 2014 Rise Set
Actual Time 7:03 AM EST 5:02 PM EST
Civil Twilight 6:32 AM EST 5:33 PM EST
Nautical Twilight 5:57 AM EST 6:08 PM EST
Astronomical Twilight 5:23 AM EST 6:42 PM EST
Moon 9:58 AM EST (2/5) No Moon Set
Length of Visible Light 11h 01m
Length of Day
9h 59m
Waxing Crescent, 39% of the Moon is Illuminated
Feb 5
Waxing Crescent
Feb 6
First Quarter
Feb 14
Full
Feb 22
Last Quarter
Mar 1
New

Hourly Weather History & Observations

Time (EST) Temp. Windchill Dew Point Humidity Pressure Visibility Wind Dir Wind Speed Gust Speed Precip Events Conditions
12:15 AM 14.0 °F - 8.6 °F 79% 30.30 in 10.0 mi Calm Calm - N/A   Overcast
12:35 AM 14.2 °F - 8.6 °F 78% 30.29 in 10.0 mi Calm Calm - N/A   Overcast
12:55 AM 14.0 °F - 8.6 °F 79% 30.29 in 7.0 mi Calm Calm - N/A   Overcast
1:15 AM 14.0 °F - 8.6 °F 79% 30.28 in 10.0 mi Calm Calm - N/A   Overcast
1:35 AM 14.2 °F - 8.6 °F 78% 30.27 in 10.0 mi Calm Calm - N/A   Overcast
1:55 AM 14.0 °F - 8.4 °F 78% 30.25 in 10.0 mi Calm Calm - N/A   Overcast
2:15 AM 14.4 °F - 8.8 °F 79% 30.25 in 10.0 mi Calm Calm - N/A   Overcast
2:35 AM 14.7 °F - 9.3 °F 79% 30.26 in 10.0 mi Calm Calm - N/A   Overcast
2:55 AM 14.9 °F - 9.3 °F 79% 30.25 in 7.0 mi Calm Calm - N/A   Overcast
3:15 AM 14.9 °F - 9.3 °F 79% 30.25 in 2.5 mi Calm Calm - N/A Snow Light Snow
3:35 AM 14.5 °F - 9.5 °F 80% 30.24 in 2.0 mi Calm Calm - N/A Snow Light Snow
3:55 AM 14.4 °F - 9.3 °F 80% 30.22 in 1.5 mi Calm Calm - N/A Snow Light Snow
4:15 AM 14.5 °F - 9.9 °F 82% 30.21 in 1.5 mi Calm Calm - N/A Snow Light Snow
4:35 AM 14.7 °F - 10.0 °F 82% 30.20 in 1.2 mi Calm Calm - N/A Snow Light Snow
4:55 AM 14.9 °F - 10.4 °F 82% 30.20 in 1.2 mi Calm Calm - N/A Snow Light Snow
5:15 AM 15.6 °F - 10.9 °F 82% 30.19 in 1.0 mi Calm Calm - N/A Snow Snow
5:35 AM 15.4 °F - 10.8 °F 82% 30.18 in 1.8 mi Calm Calm - N/A Snow Light Snow
5:55 AM 15.3 °F - 10.8 °F 82% 30.17 in 1.5 mi Calm Calm - N/A Snow Light Snow
6:15 AM 15.6 °F - 11.1 °F 82% 30.17 in 1.5 mi Calm Calm - N/A Snow Light Snow
6:35 AM 15.4 °F - 10.8 °F 82% 30.17 in 1.2 mi Calm Calm - N/A Snow Light Snow
6:55 AM 15.8 °F - 11.1 °F 82% 30.16 in 1.0 mi Calm Calm - N/A Snow Snow
7:15 AM 15.4 °F - 10.8 °F 82% 30.16 in 1.2 mi Calm Calm - N/A Snow Light Snow
7:35 AM 15.3 °F - 10.6 °F 82% 30.15 in 0.8 mi Calm Calm - N/A Snow Light Snow
7:55 AM 15.6 °F - 11.1 °F 82% 30.15 in 0.8 mi Calm Calm - N/A Snow Light Snow
8:15 AM 15.8 °F - 11.3 °F 82% 30.12 in 1.0 mi Calm Calm - N/A Snow Light Snow
8:35 AM 16.3 °F - 11.3 °F 81% 30.11 in 0.8 mi Calm Calm - N/A Snow Light Snow
8:55 AM 15.8 °F - 10.9 °F 81% 30.11 in 0.2 mi Calm Calm - N/A Snow Snow
9:15 AM 16.5 °F - 11.8 °F 82% 30.09 in 1.0 mi Calm Calm - N/A Snow Light Snow
9:35 AM 16.7 °F - 12.0 °F 82% 30.07 in 1.0 mi Calm Calm - N/A Snow Light Snow
9:55 AM 16.7 °F - 11.8 °F 81% 30.04 in 1.0 mi Calm Calm - N/A Snow Light Snow
10:15 AM 16.7 °F - 12.0 °F 82% 30.04 in 0.8 mi Calm Calm - N/A Snow Light Snow
10:35 AM 17.1 °F 10.0 °F 12.2 °F 81% 30.01 in 0.8 mi North 4.6 mph - N/A Snow Light Snow
10:55 AM 17.1 °F 10.0 °F 12.2 °F 81% 30.00 in 1.2 mi North 4.6 mph - N/A Snow Light Snow
11:15 AM 17.4 °F 10.4 °F 12.2 °F 80% 29.98 in 1.0 mi North 4.6 mph - N/A Snow Light Snow
11:35 AM 17.6 °F 10.7 °F 12.7 °F 81% 29.95 in 1.5 mi North 4.6 mph - N/A Snow Light Snow
11:55 AM 17.6 °F 8.2 °F 12.9 °F 82% 29.92 in 1.0 mi North 6.9 mph - N/A Snow Light Snow
12:15 PM 18.3 °F 10.2 °F 13.6 °F 82% 29.90 in 0.8 mi North 5.8 mph - N/A Snow Light Snow
12:35 PM 18.5 °F 8.4 °F 13.6 °F 81% 29.87 in 1.2 mi North 8.1 mph - N/A Snow Light Snow
12:55 PM 18.9 °F 9.8 °F 13.8 °F 81% 29.84 in 1.5 mi North 6.9 mph - N/A Snow Light Snow
1:15 PM 19.4 °F 10.4 °F 14.7 °F 82% 29.83 in 1.2 mi North 6.9 mph - N/A Snow Light Snow
1:35 PM 20.3 °F 10.6 °F 15.3 °F 81% 29.80 in 1.2 mi North 8.1 mph - N/A Snow Light Snow
1:55 PM 20.7 °F 11.9 °F 15.8 °F 81% 29.81 in 1.8 mi NNW 6.9 mph - N/A Snow Light Snow
2:15 PM 21.2 °F 10.9 °F 16.3 °F 82% 29.79 in 1.2 mi NNW 9.2 mph - N/A Snow Light Snow
2:35 PM 21.2 °F 9.5 °F 16.5 °F 82% 29.80 in 1.2 mi NNW 11.5 mph - N/A Snow Light Snow
2:55 PM 21.6 °F 12.1 °F 16.5 °F 81% 29.82 in 0.5 mi NNW 8.1 mph - N/A Snow Snow
3:15 PM 21.6 °F 11.3 °F 16.7 °F 82% 29.80 in 0.8 mi NNW 9.2 mph - N/A Snow Light Snow
3:35 PM 21.2 °F 10.9 °F 16.7 °F 83% 29.79 in 1.0 mi NNW 9.2 mph - N/A Snow Light Snow
3:55 PM 21.0 °F 10.6 °F 16.5 °F 83% 29.77 in 1.8 mi North 9.2 mph - N/A Snow Light Snow
4:15 PM 21.0 °F 12.4 °F 16.7 °F 83% 29.78 in 0.8 mi NNW 6.9 mph - N/A Snow Light Snow
4:35 PM 20.8 °F 11.2 °F 16.5 °F 83% 29.78 in 0.8 mi NNW 8.1 mph - N/A Snow Light Snow
4:55 PM 21.0 °F 10.6 °F 16.7 °F 83% 29.78 in 0.8 mi NNW 9.2 mph - N/A Snow Light Snow
5:15 PM 20.8 °F 9.7 °F 16.5 °F 83% 29.78 in 1.8 mi NNW 10.4 mph - N/A Snow Light Snow
5:35 PM 20.8 °F 10.4 °F 16.3 °F 83% 29.80 in 1.5 mi NNW 9.2 mph - N/A Snow Light Snow
5:55 PM 20.7 °F 9.5 °F 15.8 °F 81% 29.81 in 1.5 mi NNW 10.4 mph - N/A Snow Light Snow
6:15 PM 20.5 °F 8.6 °F 15.8 °F 82% 29.81 in 1.5 mi North 11.5 mph - N/A Snow Light Snow
6:35 PM 19.8 °F 6.5 °F 14.9 °F 81% 29.81 in 2.0 mi NNW 13.8 mph - N/A Snow Light Snow
6:55 PM 18.9 °F 5.9 °F 14.0 °F 81% 29.82 in 1.5 mi North 12.7 mph - N/A Snow Light Snow
7:15 PM 18.1 °F 5.6 °F 13.1 °F 81% 29.83 in 2.0 mi NNW 11.5 mph - N/A Snow Light Snow
7:35 PM 17.6 °F 5.0 °F 12.4 °F 80% 29.83 in 2.0 mi NNW 11.5 mph - N/A Snow Light Snow
7:55 PM 17.4 °F 5.4 °F 11.8 °F 79% 29.83 in 2.5 mi NNW 10.4 mph - N/A Snow Light Snow
8:15 PM 17.2 °F 4.5 °F 11.8 °F 79% 29.84 in 2.0 mi NNW 11.5 mph - N/A Snow Light Snow
8:35 PM 17.1 °F 5.8 °F 11.3 °F 78% 29.86 in 2.5 mi NNW 9.2 mph - N/A Snow Light Snow
8:55 PM 16.3 °F 5.7 °F 11.1 °F 80% 29.88 in 2.5 mi NNW 8.1 mph - N/A Snow Light Snow
9:15 PM 15.8 °F 3.4 °F 10.4 °F 79% 29.89 in 2.0 mi NW 10.4 mph - N/A Snow Light Snow
9:35 PM 15.4 °F 3.8 °F 9.9 °F 79% 29.91 in 3.0 mi NW 9.2 mph - N/A Snow Light Snow
9:55 PM 14.4 °F 4.3 °F 8.6 °F 78% 29.92 in 4.0 mi North 6.9 mph - N/A Snow Light Snow
10:15 PM 13.8 °F 2.7 °F 7.9 °F 77% 29.93 in 2.5 mi NW 8.1 mph - N/A Snow Light Snow
10:35 PM 13.1 °F 4.0 °F 7.0 °F 77% 29.94 in 3.0 mi NNW 5.8 mph - N/A Snow Light Snow
10:55 PM 12.2 °F -1.0 °F 5.9 °F 76% 29.95 in 4.0 mi NNW 10.4 mph - N/A Snow Light Snow
11:35 PM 11.5 °F -4.1 °F 4.8 °F 75% 29.98 in 4.0 mi NNW 13.8 mph - N/A Snow Light Snow
11:55 PM 10.4 °F -2.4 °F 4.1 °F 76% 30.00 in 7.0 mi North 9.2 mph - N/A Snow Light Snow